| time (UTC) | temp F | wind direction | speed MPH | gust MPH | rain 1hr in | rain 24hr in | rain mn in | humidity % | barometer mb |
| 20260906134526 | 76 | 243 | 0.0 | 2.0 | 0.00 | 0.04 | 0.04 | 81 | 1012.2 |
| 20260906134033 | 75 | 243 | 0.0 | 2.0 | 0.00 | 0.04 | 0.04 | 82 | 1012.4 |
| 20260906133554 | 75 | 243 | 1.0 | 3.0 | 0.00 | 0.04 | 0.04 | 81 | 1012.4 |
| 20260906133044 | 75 | 242 | 1.0 | 3.0 | 0.00 | 0.04 | 0.04 | 82 | 1012.4 |
| 20260906132526 | 74 | 271 | 1.0 | 3.0 | 0.00 | 0.04 | 0.04 | 83 | 1012.4 |
| 20260906132028 | 74 | 271 | 1.0 | 3.0 | 0.00 | 0.04 | 0.04 | 85 | 1012.4 |
| 20260906131517 | 73 | 245 | 2.0 | 2.0 | 0.00 | 0.04 | 0.04 | 90 | 1012.3 |
| 20260906131020 | 72 | 245 | 0.0 | 0.0 | 0.00 | 0.04 | 0.04 | 90 | 1012.3 |
| 20260906130522 | 72 | 245 | 0.0 | 0.0 | 0.00 | 0.04 | 0.04 | 90 | 1012.2 |
| 20260906130024 | 71 | 245 | 0.0 | 0.0 | 0.00 | 0.04 | 0.04 | 90 | 1012.3 |
| 20260906125549 | 71 | 245 | 0.0 | 0.0 | 0.00 | 0.04 | 0.04 | 89 | 1012.4 |
| 20260906125019 | 71 | 245 | 0.0 | 0.0 | 0.00 | 0.04 | 0.04 | 90 | 1012.4 |
| 20260906124527 | 71 | 245 | 0.0 | 0.0 | 0.00 | 0.04 | 0.04 | 90 | 1012.5 |
| 20260906124037 | 70 | 245 | 0.0 | 0.0 | 0.00 | 0.04 | 0.04 | 90 | 1012.4 |
| 20260906123526 | 70 | 245 | 0.0 | 1.0 | 0.00 | 0.04 | 0.04 | 90 | 1012.5 |
| 20260906123027 | 70 | 245 | 0.0 | 1.0 | 0.00 | 0.04 | 0.04 | 90 | 1012.5 |
| 20260906122528 | 70 | 245 | 0.0 | 1.0 | 0.00 | 0.04 | 0.04 | 90 | 1012.5 |
| 20260906122021 | 70 | 245 | 0.0 | 0.0 | 0.00 | 0.04 | 0.04 | 90 | 1012.5 |
| 20260906121549 | 70 | 245 | 0.0 | 0.0 | 0.00 | 0.04 | 0.04 | 90 | 1012.5 |
| 20260906121034 | 70 | 245 | 0.0 | 0.0 | 0.00 | 0.04 | 0.04 | 90 | 1012.5 |
| 20260906120525 | 70 | 245 | 0.0 | 1.0 | 0.00 | 0.04 | 0.04 | 89 | 1012.5 |
| 20260906120027 | 70 | 245 | 0.0 | 1.0 | 0.00 | 0.04 | 0.04 | 90 | 1012.5 |
| 20260906115550 | 70 | 245 | 0.0 | 0.0 | 0.00 | 0.04 | 0.04 | 89 | 1012.5 |
| 20260906115020 | 70 | 245 | 0.0 | 0.0 | 0.00 | 0.04 | 0.04 | 89 | 1012.4 |
| 20260906114522 | 70 | 245 | 0.0 | 0.0 | 0.00 | 0.04 | 0.04 | 88 | 1012.4 |
| 20260906114045 | 70 | 245 | 0.0 | 1.0 | 0.00 | 0.04 | 0.04 | 89 | 1012.3 |
| 20260906113516 | 70 | 245 | 1.0 | 2.0 | 0.00 | 0.04 | 0.04 | 89 | 1012.3 |
| 20260906113018 | 70 | 245 | 1.0 | 2.0 | 0.00 | 0.04 | 0.04 | 88 | 1012.3 |
| 20260906112520 | 70 | 245 | 0.0 | 1.0 | 0.00 | 0.04 | 0.04 | 87 | 1012.2 |
| 20260906112031 | 71 | 245 | 0.0 | 2.0 | 0.00 | 0.04 | 0.04 | 87 | 1012.3 |
| 20260906111517 | 71 | 245 | 0.0 | 2.0 | 0.00 | 0.04 | 0.04 | 87 | 1012.3 |
| 20260906111020 | 71 | 245 | 0.0 | 0.0 | 0.00 | 0.04 | 0.04 | 87 | 1012.4 |
| 20260906110532 | 71 | 245 | 0.0 | 1.0 | 0.00 | 0.04 | 0.04 | 86 | 1012.4 |
| 20260906110033 | 72 | 245 | 0.0 | 2.0 | 0.00 | 0.04 | 0.04 | 86 | 1012.1 |
| 20260906105514 | 72 | 244 | 0.0 | 3.0 | 0.00 | 0.04 | 0.04 | 85 | 1012.1 |
| 20260906105027 | 72 | 244 | 0.0 | 3.0 | 0.00 | 0.04 | 0.04 | 87 | 1012.0 |
| 20260906104529 | 72 | 316 | 0.0 | 2.0 | 0.00 | 0.04 | 0.04 | 85 | 1011.8 |
| 20260906104030 | 72 | 316 | 1.0 | 3.0 | 0.00 | 0.04 | 0.04 | 85 | 1011.6 |
| 20260906103522 | 73 | 316 | 1.0 | 3.0 | 0.00 | 0.04 | 0.04 | 83 | 1011.6 |
| 20260906103034 | 73 | 316 | 1.0 | 4.0 | 0.00 | 0.04 | 0.04 | 83 | 1011.6 |
| 20260906102520 | 73 | 306 | 2.0 | 4.0 | 0.00 | 0.04 | 0.04 | 82 | 1011.6 |
| 20260906102022 | 72 | 240 | 1.0 | 2.0 | 0.00 | 0.04 | 0.04 | 81 | 1011.4 |
| 20260906101534 | 72 | 240 | 0.0 | 1.0 | 0.00 | 0.04 | 0.04 | 84 | 1011.3 |
| 20260906101036 | 72 | 240 | 0.0 | 2.0 | 0.00 | 0.04 | 0.04 | 83 | 1011.1 |
| 20260906100516 | 71 | 240 | 1.0 | 2.0 | 0.00 | 0.04 | 0.04 | 85 | 1011.0 |
| 20260906100028 | 71 | 240 | 0.0 | 0.0 | 0.00 | 0.04 | 0.04 | 85 | 1011.0 |
| 20260906095530 | 71 | 240 | 0.0 | 0.0 | 0.00 | 0.04 | 0.04 | 85 | 1010.9 |
| 20260906095031 | 71 | 240 | 0.0 | 0.0 | 0.00 | 0.04 | 0.04 | 87 | 1011.1 |
| 20260906094522 | 71 | 240 | 0.0 | 0.0 | 0.00 | 0.04 | 0.04 | 88 | 1011.1 |
| 20260906094025 | 71 | 240 | 0.0 | 1.0 | 0.00 | 0.04 | 0.04 | 87 | 1011.1 |
| 20260906093546 | 70 | 240 | 0.0 | 2.0 | 0.00 | 0.04 | 0.04 | 86 | 1011.1 |
| 20260906093015 | 70 | 240 | 0.0 | 2.0 | 0.00 | 0.04 | 0.04 | 87 | 1011.1 |
| 20260906092547 | 70 | 240 | 0.0 | 2.0 | 0.00 | 0.04 | 0.04 | 87 | 1011.0 |
| 20260906092031 | 70 | 240 | 0.0 | 0.0 | 0.00 | 0.04 | 0.04 | 85 | 1010.9 |
| 20260906091523 | 70 | 240 | 0.0 | 2.0 | 0.00 | 0.04 | 0.04 | 88 | 1010.9 |
| 20260906091026 | 70 | 240 | 1.0 | 3.0 | 0.00 | 0.04 | 0.04 | 87 | 1011.0 |
| 20260906090528 | 70 | 240 | 2.0 | 3.0 | 0.00 | 0.04 | 0.04 | 92 | 1010.9 |
| 20260906090029 | 70 | 179 | 0.0 | 2.0 | 0.01 | 0.04 | 0.04 | 91 | 1010.8 |
| 20260906085531 | 70 | 179 | 1.0 | 4.0 | 0.01 | 0.04 | 0.04 | 92 | 1010.8 |
| 20260906085024 | 70 | 179 | 1.0 | 4.0 | 0.01 | 0.04 | 0.04 | 92 | 1010.7 |
| 20260906084526 | 70 | 184 | 2.0 | 4.0 | 0.02 | 0.04 | 0.04 | 92 | 1010.6 |
| 20260906084029 | 70 | 182 | 1.0 | 5.0 | 0.02 | 0.04 | 0.04 | 92 | 1010.7 |
| 20260906083530 | 70 | 182 | 2.0 | 5.0 | 0.03 | 0.04 | 0.04 | 92 | 1010.9 |
| 20260906083014 | 70 | 189 | 2.0 | 3.0 | 0.03 | 0.04 | 0.04 | 92 | 1011.1 |
| 20260906082542 | 70 | 145 | 1.0 | 5.0 | 0.03 | 0.04 | 0.04 | 93 | 1011.4 |
| 20260906082047 | 70 | 264 | 1.0 | 5.0 | 0.03 | 0.04 | 0.04 | 92 | 1011.8 |
| 20260906081534 | 71 | 294 | 2.0 | 6.0 | 0.03 | 0.04 | 0.04 | 92 | 1012.0 |
| 20260906081041 | 71 | 226 | 1.0 | 6.0 | 0.04 | 0.04 | 0.04 | 91 | 1012.3 |
| 20260906080545 | 71 | 194 | 1.0 | 5.0 | 0.04 | 0.04 | 0.04 | 90 | 1012.4 |
| 20260906080017 | 71 | 57 | 2.0 | 7.0 | 0.03 | 0.03 | 0.03 | 89 | 1012.6 |
| 20260906075519 | 72 | 203 | 2.0 | 7.0 | 0.03 | 0.03 | 0.03 | 89 | 1012.7 |
| 20260906075041 | 72 | 351 | 2.0 | 5.0 | 0.03 | 0.03 | 0.03 | 88 | 1013.0 |
| 20260906074542 | 73 | 254 | 1.0 | 3.0 | 0.02 | 0.02 | 0.02 | 88 | 1012.9 |
| 20260906074023 | 73 | 155 | 1.0 | 3.0 | 0.02 | 0.02 | 0.02 | 88 | 1013.1 |
| 20260906073525 | 74 | 165 | 2.0 | 5.0 | 0.01 | 0.01 | 0.01 | 88 | 1013.1 |
| 20260906073017 | 74 | 182 | 2.0 | 4.0 | 0.01 | 0.01 | 0.01 | 89 | 1013.2 |
| 20260906072519 | 75 | 348 | 3.0 | 6.0 | 0.01 | 0.01 | 0.01 | 89 | 1013.1 |
| 20260906072022 | 75 | 308 | 3.0 | 6.0 | 0.01 | 0.01 | 0.01 | 88 | 1013.2 |
| 20260906071534 | 75 | 311 | 3.0 | 5.0 | 0.01 | 0.01 | 0.01 | 89 | 1013.0 |
| 20260906071017 | 75 | 345 | 1.0 | 2.0 | 0.00 | 0.00 | 0.00 | 89 | 1012.4 |
| 20260906070523 | 75 | 345 | 0.0 | 1.0 | 0.00 | 0.00 | 0.00 | 89 | 1012.1 |
| 20260906070046 | 75 | 345 | 1.0 | 1.0 | 0.00 | 0.00 | 0.00 | 88 | 1012.1 |
| 20260906065527 | 75 | 345 | 0.0 | 2.0 | 0.00 | 0.00 | 0.00 | 89 | 1012.3 |
| 20260906065029 | 75 | 345 | 0.0 | 2.0 | 0.00 | 0.00 | 0.00 | 88 | 1012.4 |
| 20260906064521 | 75 | 345 | 0.0 | 1.0 | 0.00 | 0.00 | 0.00 | 88 | 1012.3 |
| 20260906064024 | 75 | 345 | 0.0 | 2.0 | 0.00 | 0.00 | 0.00 | 88 | 1012.2 |
| 20260906063526 | 75 | 345 | 1.0 | 3.0 | 0.00 | 0.00 | 0.00 | 88 | 1012.3 |
| 20260906063040 | 75 | 346 | 1.0 | 3.0 | 0.00 | 0.00 | 0.00 | 88 | 1012.3 |
| 20260906062552 | 75 | 346 | 1.0 | 4.0 | 0.00 | 0.00 | 0.00 | 87 | 1012.1 |
| 20260906062031 | 76 | 322 | 0.0 | 1.0 | 0.00 | 0.00 | 0.00 | 89 | 1012.0 |
| 20260906061524 | 76 | 322 | 0.0 | 0.0 | 0.00 | 0.00 | 0.00 | 89 | 1011.9 |
| 20260906061027 | 76 | 322 | 0.0 | 0.0 | 0.00 | 0.00 | 0.00 | 89 | 1011.9 |
| 20260906060529 | 76 | 322 | 0.0 | 0.0 | 0.00 | 0.00 | 0.00 | 89 | 1012.0 |
| 20260906060025 | 76 | 322 | 0.0 | 0.0 | 0.00 | 0.00 | 0.00 | 88 | 1012.0 |
| 20260906055531 | 76 | 322 | 0.0 | 0.0 | 0.00 | 0.00 | 0.00 | 87 | 1012.1 |
| 20260906055033 | 76 | 322 | 0.0 | 0.0 | 0.00 | 0.00 | 0.00 | 85 | 1012.2 |
| 20260906054525 | 77 | 322 | 0.0 | 0.0 | 0.00 | 0.00 | 0.00 | 84 | 1012.0 |
| 20260906054030 | 77 | 322 | 0.0 | 3.0 | 0.00 | 0.00 | 0.00 | 82 | 1012.0 |
| 20260906053532 | 78 | 322 | 1.0 | 5.0 | 0.00 | 0.00 | 0.00 | 82 | 1012.0 |
| 20260906053055 | 79 | 323 | 4.0 | 5.0 | 0.00 | 0.00 | 0.00 | 79 | 1012.0 |
| 20260906052525 | 79 | 216 | 2.0 | 3.0 | 0.00 | 0.00 | 0.00 | 80 | 1011.8 |
| 20260906052027 | 79 | 215 | 1.0 | 2.0 | 0.00 | 0.00 | 0.00 | 81 | 1011.5 |
| 20260906051530 | 79 | 227 | 1.0 | 2.0 | 0.00 | 0.00 | 0.00 | 82 | 1011.4 |
| 20260906051025 | 78 | 290 | 1.0 | 2.0 | 0.00 | 0.00 | 0.00 | 81 | 1011.5 |
| 20260906050519 | 79 | 290 | 1.0 | 2.0 | 0.00 | 0.00 | 0.00 | 82 | 1011.4 |
| 20260906050020 | 79 | 290 | 1.0 | 2.0 | 0.00 | 0.00 | 0.00 | 82 | 1011.6 |
| 20260906045545 | 79 | 290 | 1.0 | 2.0 | 0.00 | 0.00 | 0.00 | 81 | 1011.5 |
| 20260906045015 | 79 | 290 | 1.0 | 2.0 | 0.00 | 0.00 | 0.00 | 81 | 1011.6 |
| 20260906044517 | 79 | 290 | 1.0 | 2.0 | 0.00 | 0.00 | 0.00 | 80 | 1011.7 |
| 20260906044019 | 79 | 290 | 1.0 | 2.0 | 0.00 | 0.00 | 0.00 | 80 | 1011.8 |
| 20260906043531 | 79 | 290 | 0.0 | 2.0 | 0.00 | 0.00 | 0.00 | 80 | 1011.9 |
| 20260906043024 | 79 | 290 | 0.0 | 0.0 | 0.00 | 0.00 | 0.00 | 80 | 1011.9 |
| 20260906042525 | 79 | 290 | 0.0 | 1.0 | 0.00 | 0.00 | 0.00 | 79 | 1011.9 |
| 20260906042016 | 79 | 290 | 0.0 | 2.0 | 0.00 | 0.00 | 0.00 | 79 | 1011.8 |
| 20260906041518 | 79 | 290 | 0.0 | 2.0 | 0.00 | 0.00 | 0.00 | 79 | 1011.8 |
| 20260906041040 | 79 | 290 | 1.0 | 2.0 | 0.00 | 0.00 | 0.00 | 80 | 1011.8 |
| 20260906040541 | 79 | 290 | 1.0 | 2.0 | 0.00 | 0.00 | 0.00 | 80 | 1011.9 |
| 20260906040018 | 79 | 290 | 1.0 | 2.0 | 0.00 | 0.00 | 0.00 | 79 | 1012.0 |
| 20260906035533 | 80 | 290 | 1.0 | 2.0 | 0.00 | 0.00 | 0.00 | 79 | 1012.0 |
| 20260906035016 | 80 | 290 | 1.0 | 2.0 | 0.00 | 0.00 | 0.00 | 79 | 1012.2 |
| 20260906034527 | 80 | 290 | 1.0 | 2.0 | 0.00 | 0.00 | 0.00 | 79 | 1012.0 |
| 20260906034030 | 80 | 290 | 1.0 | 2.0 | 0.00 | 0.00 | 0.00 | 79 | 1012.0 |
| 20260906033553 | 80 | 290 | 1.0 | 2.0 | 0.00 | 0.00 | 0.00 | 78 | 1012.2 |
| 20260906033015 | 80 | 290 | 1.0 | 2.0 | 0.00 | 0.00 | 0.00 | 77 | 1012.0 |
| 20260906032518 | 80 | 290 | 0.0 | 2.0 | 0.00 | 0.00 | 0.00 | 78 | 1012.0 |
| 20260906032025 | 80 | 290 | 0.0 | 2.0 | 0.00 | 0.00 | 0.00 | 78 | 1012.0 |
| 20260906031515 | 80 | 290 | 0.0 | 2.0 | 0.00 | 0.00 | 0.00 | 77 | 1011.8 |
| 20260906031047 | 80 | 290 | 0.0 | 2.0 | 0.00 | 0.00 | 0.00 | 77 | 1012.0 |
| 20260906030531 | 80 | 290 | 1.0 | 1.0 | 0.00 | 0.00 | 0.00 | 77 | 1011.9 |
| 20260906030033 | 80 | 290 | 0.0 | 1.0 | 0.00 | 0.00 | 0.00 | 76 | 1011.9 |
| 20260906025523 | 81 | 290 | 0.0 | 2.0 | 0.00 | 0.00 | 0.00 | 76 | 1011.9 |
| 20260906025026 | 81 | 290 | 1.0 | 4.0 | 0.00 | 0.00 | 0.00 | 76 | 1011.8 |
| 20260906024518 | 81 | 290 | 1.0 | 4.0 | 0.00 | 0.00 | 0.00 | 75 | 1011.8 |
| 20260906024027 | 80 | 291 | 0.0 | 2.0 | 0.00 | 0.00 | 0.00 | 76 | 1011.7 |
| 20260906023530 | 80 | 290 | 0.0 | 1.0 | 0.00 | 0.00 | 0.00 | 75 | 1011.6 |
| 20260906023032 | 80 | 290 | 0.0 | 1.0 | 0.00 | 0.00 | 0.00 | 75 | 1011.4 |
| 20260906022521 | 80 | 290 | 0.0 | 1.0 | 0.00 | 0.00 | 0.00 | 76 | 1011.3 |
| 20260906022022 | 80 | 290 | 0.0 | 1.0 | 0.00 | 0.00 | 0.00 | 76 | 1011.4 |
| 20260906021517 | 80 | 290 | 0.0 | 2.0 | 0.00 | 0.00 | 0.00 | 76 | 1011.4 |
| 20260906021049 | 80 | 291 | 1.0 | 2.0 | 0.00 | 0.00 | 0.00 | 75 | 1011.4 |
| 20260906020549 | 81 | 310 | 0.0 | 1.0 | 0.00 | 0.00 | 0.00 | 75 | 1011.5 |
| 20260906020020 | 80 | 310 | 0.0 | 2.0 | 0.00 | 0.00 | 0.00 | 74 | 1011.5 |
| 20260906015552 | 80 | 310 | 1.0 | 2.0 | 0.00 | 0.00 | 0.00 | 75 | 1011.4 |
| 20260906015033 | 80 | 310 | 0.0 | 0.0 | 0.00 | 0.00 | 0.00 | 74 | 1011.4 |
| 20260906014534 | 80 | 310 | 0.0 | 1.0 | 0.00 | 0.00 | 0.00 | 73 | 1011.3 |
| 20260906014016 | 80 | 310 | 0.0 | 1.0 | 0.00 | 0.00 | 0.00 | 73 | 1011.2 |
| 20260906013528 | 80 | 310 | 0.0 | 1.0 | 0.00 | 0.00 | 0.00 | 73 | 1011.2 |
| 20260906013030 | 80 | 310 | 0.0 | 0.0 | 0.00 | 0.00 | 0.00 | 74 | 1011.1 |
| 20260906012532 | 80 | 310 | 0.0 | 0.0 | 0.00 | 0.00 | 0.00 | 74 | 1011.1 |
| 20260906012021 | 81 | 310 | 0.0 | 0.0 | 0.00 | 0.00 | 0.00 | 73 | 1010.9 |
| 20260906011527 | 81 | 310 | 0.0 | 1.0 | 0.00 | 0.00 | 0.00 | 73 | 1010.8 |
| 20260906011020 | 81 | 310 | 0.0 | 1.0 | 0.00 | 0.00 | 0.00 | 72 | 1010.8 |
| 20260906010521 | 81 | 310 | 1.0 | 1.0 | 0.00 | 0.00 | 0.00 | 72 | 1010.8 |
| 20260906010022 | 81 | 310 | 0.0 | 1.0 | 0.00 | 0.00 | 0.00 | 71 | 1010.6 |
| 20260906005534 | 82 | 310 | 0.0 | 1.0 | 0.00 | 0.00 | 0.00 | 70 | 1010.6 |
| 20260906005016 | 82 | 310 | 0.0 | 1.0 | 0.00 | 0.00 | 0.00 | 70 | 1010.6 |
| 20260906004538 | 82 | 310 | 1.0 | 2.0 | 0.00 | 0.00 | 0.00 | 69 | 1010.6 |
| 20260906004029 | 82 | 310 | 0.0 | 2.0 | 0.00 | 0.00 | 0.00 | 69 | 1010.6 |
| 20260906003535 | 82 | 310 | 0.0 | 0.0 | 0.00 | 0.00 | 0.00 | 68 | 1010.5 |
| 20260906003021 | 82 | 310 | 0.0 | 0.0 | 0.00 | 0.00 | 0.00 | 67 | 1010.5 |
| 20260906002517 | 83 | 310 | 0.0 | 1.0 | 0.00 | 0.00 | 0.00 | 67 | 1010.6 |
| 20260906002019 | 83 | 310 | 0.0 | 2.0 | 0.00 | 0.00 | 0.00 | 66 | 1010.6 |
| 20260906001521 | 83 | 310 | 1.0 | 2.0 | 0.00 | 0.00 | 0.00 | 66 | 1010.6 |
| 20260906001032 | 83 | 310 | 0.0 | 2.0 | 0.00 | 0.00 | 0.00 | 67 | 1010.6 |
| 20260906000536 | 84 | 310 | 1.0 | 2.0 | 0.00 | 0.00 | 0.00 | 67 | 1010.7 |
| 20260906000016 | 84 | 310 | 1.0 | 2.0 | 0.00 | 0.00 | 0.00 | 67 | 1010.8 |
| 20260905235517 | 84 | 310 | 1.0 | 2.0 | 0.00 | 0.00 | 0.00 | 67 | 1010.8 |
| 20260905235030 | 85 | 310 | 0.0 | 6.0 | 0.00 | 0.00 | 0.00 | 65 | 1010.8 |
| 20260905234541 | 85 | 310 | 2.0 | 6.0 | 0.00 | 0.00 | 0.00 | 64 | 1010.9 |
| 20260905234041 | 86 | 269 | 2.0 | 8.0 | 0.00 | 0.00 | 0.00 | 63 | 1011.1 |
| 20260905233527 | 87 | 227 | 2.0 | 8.0 | 0.00 | 0.00 | 0.00 | 62 | 1011.2 |
| 20260905233020 | 88 | 287 | 2.0 | 4.0 | 0.00 | 0.00 | 0.00 | 65 | 1011.2 |
| 20260905232527 | 88 | 251 | 1.0 | 1.0 | 0.00 | 0.00 | 0.00 | 63 | 1010.8 |
| 20260905232029 | 88 | 251 | 0.0 | 1.0 | 0.00 | 0.00 | 0.00 | 64 | 1010.8 |
| 20260905231541 | 88 | 251 | 0.0 | 2.0 | 0.00 | 0.00 | 0.00 | 63 | 1010.9 |
| 20260905231022 | 89 | 251 | 1.0 | 2.0 | 0.00 | 0.00 | 0.00 | 63 | 1010.7 |
| 20260905230524 | 89 | 251 | 1.0 | 2.0 | 0.00 | 0.00 | 0.00 | 62 | 1010.7 |
| 20260905230026 | 88 | 251 | 0.0 | 3.0 | 0.00 | 0.00 | 0.00 | 61 | 1010.7 |
| 20260905225528 | 88 | 251 | 1.0 | 3.0 | 0.00 | 0.00 | 0.00 | 60 | 1010.5 |
| 20260905225021 | 88 | 251 | 0.0 | 1.0 | 0.00 | 0.00 | 0.00 | 59 | 1010.3 |
| 20260905224522 | 88 | 251 | 0.0 | 2.0 | 0.00 | 0.00 | 0.00 | 60 | 1010.4 |
| 20260905224049 | 88 | 251 | 1.0 | 2.0 | 0.00 | 0.00 | 0.00 | 60 | 1010.4 |
| 20260905223520 | 88 | 251 | 0.0 | 1.0 | 0.00 | 0.00 | 0.00 | 60 | 1010.4 |
| 20260905223022 | 88 | 251 | 0.0 | 3.0 | 0.00 | 0.00 | 0.00 | 61 | 1010.5 |
| 20260905222528 | 88 | 251 | 1.0 | 3.0 | 0.00 | 0.00 | 0.00 | 60 | 1010.4 |
| 20260905222020 | 88 | 232 | 1.0 | 3.0 | 0.00 | 0.00 | 0.00 | 60 | 1010.3 |
| 20260905221522 | 89 | 220 | 1.0 | 5.0 | 0.00 | 0.00 | 0.00 | 57 | 1010.4 |
| 20260905221023 | 89 | 222 | 2.0 | 5.0 | 0.00 | 0.00 | 0.00 | 55 | 1010.5 |
| 20260905220517 | 91 | 149 | 1.0 | 6.0 | 0.00 | 0.00 | 0.00 | 53 | 1010.7 |
| 20260905220020 | 93 | 194 | 1.0 | 6.0 | 0.00 | 0.00 | 0.00 | 52 | 1010.7 |
| 20260905215522 | 94 | 194 | 2.0 | 6.0 | 0.00 | 0.00 | 0.00 | 50 | 1010.7 |
| 20260905215034 | 95 | 240 | 3.0 | 7.0 | 0.00 | 0.00 | 0.00 | 50 | 1010.6 |
| 20260905214536 | 96 | 215 | 2.0 | 5.0 | 0.00 | 0.00 | 0.00 | 50 | 1010.6 |
| 20260905214017 | 96 | 217 | 2.0 | 5.0 | 0.00 | 0.00 | 0.00 | 50 | 1010.6 |
| 20260905213550 | 96 | 165 | 2.0 | 4.0 | 0.00 | 0.00 | 0.00 | 49 | 1010.5 |
| 20260905213015 | 96 | 216 | 1.0 | 3.0 | 0.00 | 0.00 | 0.00 | 52 | 1010.5 |
| 20260905212517 | 96 | 215 | 1.0 | 3.0 | 0.00 | 0.00 | 0.00 | 50 | 1010.5 |
| 20260905212049 | 96 | 215 | 1.0 | 3.0 | 0.00 | 0.00 | 0.00 | 51 | 1010.5 |
| 20260905211531 | 96 | 215 | 2.0 | 4.0 | 0.00 | 0.00 | 0.00 | 51 | 1010.5 |
| 20260905211033 | 96 | 54 | 2.0 | 4.0 | 0.00 | 0.00 | 0.00 | 53 | 1010.4 |
| 20260905210546 | 95 | 81 | 1.0 | 5.0 | 0.00 | 0.00 | 0.00 | 52 | 1010.4 |
| 20260905210027 | 95 | 216 | 2.0 | 5.0 | 0.00 | 0.00 | 0.00 | 51 | 1010.4 |
| 20260905205529 | 95 | 236 | 1.0 | 3.0 | 0.00 | 0.00 | 0.00 | 54 | 1010.5 |
| 20260905205019 | 95 | 236 | 1.0 | 5.0 | 0.00 | 0.00 | 0.00 | 52 | 1010.6 |
| 20260905204522 | 95 | 214 | 2.0 | 5.0 | 0.00 | 0.00 | 0.00 | 53 | 1010.7 |
| 20260905204024 | 95 | 165 | 2.0 | 3.0 | 0.00 | 0.00 | 0.00 | 51 | 1010.7 |
| 20260905203545 | 95 | 163 | 1.0 | 6.0 | 0.00 | 0.00 | 0.00 | 52 | 1010.8 |
| 20260905203016 | 95 | 188 | 3.0 | 6.0 | 0.00 | 0.00 | 0.00 | 52 | 1010.9 |
| 20260905202521 | 95 | 229 | 1.0 | 6.0 | 0.00 | 0.00 | 0.00 | 53 | 1010.9 |
| 20260905202022 | 95 | 241 | 2.0 | 3.0 | 0.00 | 0.00 | 0.00 | 51 | 1010.9 |
| 20260905201536 | 95 | 221 | 2.0 | 4.0 | 0.00 | 0.00 | 0.00 | 51 | 1011.1 |
| 20260905201017 | 96 | 267 | 3.0 | 4.0 | 0.00 | 0.00 | 0.00 | 51 | 1011.1 |
| 20260905200520 | 96 | 284 | 1.0 | 3.0 | 0.00 | 0.00 | 0.00 | 50 | 1011.2 |
| 20260905200021 | 96 | 284 | 2.0 | 3.0 | 0.00 | 0.00 | 0.00 | 50 | 1011.3 |
| 20260905195523 | 96 | 294 | 1.0 | 4.0 | 0.00 | 0.00 | 0.00 | 51 | 1011.3 |
| 20260905195015 | 96 | 184 | 2.0 | 4.0 | 0.00 | 0.00 | 0.00 | 50 | 1011.4 |
| 20260905194518 | 96 | 309 | 2.0 | 4.0 | 0.00 | 0.00 | 0.00 | 51 | 1011.6 |
| 20260905194020 | 97 | 246 | 2.0 | 4.0 | 0.00 | 0.00 | 0.00 | 51 | 1011.6 |
| 20260905193532 | 97 | 238 | 2.0 | 4.0 | 0.00 | 0.00 | 0.00 | 51 | 1011.7 |
| 20260905193018 | 96 | 146 | 2.0 | 4.0 | 0.00 | 0.00 | 0.00 | 53 | 1011.6 |
| 20260905192519 | 97 | 267 | 2.0 | 6.0 | 0.00 | 0.00 | 0.00 | 50 | 1011.7 |
| 20260905192023 | 96 | 142 | 2.0 | 6.0 | 0.00 | 0.00 | 0.00 | 52 | 1011.7 |
| 20260905191524 | 96 | 287 | 2.0 | 4.0 | 0.00 | 0.00 | 0.00 | 51 | 1011.8 |
| 20260905191025 | 97 | 111 | 1.0 | 4.0 | 0.00 | 0.00 | 0.00 | 53 | 1011.9 |
| 20260905190539 | 96 | 350 | 2.0 | 4.0 | 0.00 | 0.00 | 0.00 | 55 | 1012.0 |
| 20260905190017 | 96 | 261 | 2.0 | 5.0 | 0.00 | 0.00 | 0.00 | 52 | 1012.1 |
| 20260905185529 | 96 | 32 | 1.0 | 4.0 | 0.00 | 0.00 | 0.00 | 53 | 1012.2 |
| 20260905185031 | 96 | 5 | 2.0 | 5.0 | 0.00 | 0.00 | 0.00 | 52 | 1012.3 |
| 20260905184532 | 96 | 304 | 2.0 | 5.0 | 0.00 | 0.00 | 0.00 | 53 | 1012.4 |
| 20260905184024 | 96 | 240 | 3.0 | 5.0 | 0.00 | 0.00 | 0.00 | 52 | 1012.4 |
| 20260905183526 | 96 | 119 | 1.0 | 5.0 | 0.00 | 0.00 | 0.00 | 54 | 1012.4 |
| 20260905183022 | 95 | 288 | 3.0 | 5.0 | 0.00 | 0.00 | 0.00 | 54 | 1012.4 |
| 20260905182523 | 95 | 204 | 3.0 | 5.0 | 0.00 | 0.00 | 0.00 | 53 | 1012.5 |
| 20260905182045 | 96 | 265 | 2.0 | 4.0 | 0.00 | 0.00 | 0.00 | 53 | 1012.6 |
| 20260905181516 | 96 | 313 | 1.0 | 4.0 | 0.00 | 0.00 | 0.00 | 54 | 1012.7 |
| 20260905181048 | 96 | 250 | 2.0 | 6.0 | 0.00 | 0.00 | 0.00 | 53 | 1012.7 |
| 20260905180529 | 96 | 203 | 1.0 | 6.0 | 0.00 | 0.00 | 0.00 | 54 | 1012.8 |
| 20260905180030 | 96 | 85 | 1.0 | 3.0 | 0.00 | 0.00 | 0.00 | 53 | 1012.9 |
| 20260905175522 | 96 | 324 | 2.0 | 4.0 | 0.00 | 0.00 | 0.00 | 53 | 1012.9 |
| 20260905175025 | 96 | 84 | 1.0 | 4.0 | 0.00 | 0.00 | 0.00 | 55 | 1012.9 |
| 20260905174527 | 95 | 248 | 2.0 | 5.0 | 0.00 | 0.00 | 0.00 | 55 | 1012.9 |
| 20260905174039 | 95 | 232 | 1.0 | 5.0 | 0.00 | 0.00 | 0.00 | 56 | 1013.0 |
| 20260905173519 | 95 | 36 | 1.0 | 3.0 | 0.00 | 0.00 | 0.00 | 56 | 1013.0 |
| 20260905173026 | 94 | 63 | 2.0 | 5.0 | 0.00 | 0.00 | 0.00 | 58 | 1013.0 |
| 20260905172517 | 94 | 91 | 2.0 | 5.0 | 0.00 | 0.00 | 0.00 | 56 | 1013.1 |
| 20260905172020 | 94 | 312 | 2.0 | 6.0 | 0.00 | 0.00 | 0.00 | 56 | 1013.2 |
| 20260905171522 | 94 | 57 | 2.0 | 4.0 | 0.00 | 0.00 | 0.00 | 59 | 1013.2 |
| 20260905171034 | 93 | 65 | 1.0 | 3.0 | 0.00 | 0.00 | 0.00 | 58 | 1013.3 |
| 20260905170515 | 93 | 80 | 1.0 | 4.0 | 0.00 | 0.00 | 0.00 | 58 | 1013.3 |
| 20260905170037 | 93 | 298 | 2.0 | 3.0 | 0.00 | 0.00 | 0.00 | 60 | 1013.3 |
| 20260905165527 | 93 | 264 | 2.0 | 3.0 | 0.00 | 0.00 | 0.00 | 60 | 1013.4 |
| 20260905165029 | 93 | 236 | 2.0 | 4.0 | 0.00 | 0.00 | 0.00 | 61 | 1013.4 |
| 20260905164532 | 93 | 56 | 1.0 | 4.0 | 0.00 | 0.00 | 0.00 | 60 | 1013.5 |
| 20260905164053 | 92 | 334 | 2.0 | 3.0 | 0.00 | 0.00 | 0.00 | 60 | 1013.6 |
| 20260905163534 | 92 | 105 | 1.0 | 5.0 | 0.00 | 0.00 | 0.00 | 61 | 1013.8 |
| 20260905163037 | 91 | 296 | 1.0 | 3.0 | 0.00 | 0.00 | 0.00 | 62 | 1013.8 |
| 20260905162532 | 91 | 65 | 1.0 | 3.0 | 0.00 | 0.00 | 0.00 | 62 | 1013.8 |
| 20260905162033 | 91 | 300 | 2.0 | 3.0 | 0.00 | 0.00 | 0.00 | 63 | 1013.9 |
| 20260905161535 | 91 | 273 | 2.0 | 3.0 | 0.00 | 0.00 | 0.00 | 64 | 1013.9 |
| 20260905161026 | 90 | 189 | 1.0 | 3.0 | 0.00 | 0.00 | 0.00 | 63 | 1014.0 |
| 20260905160528 | 90 | 341 | 2.0 | 3.0 | 0.00 | 0.00 | 0.00 | 66 | 1014.0 |
| 20260905160030 | 89 | 307 | 2.0 | 4.0 | 0.00 | 0.00 | 0.00 | 65 | 1014.0 |
| 20260905155522 | 89 | 307 | 2.0 | 4.0 | 0.00 | 0.00 | 0.00 | 65 | 1014.1 |
| 20260905155035 | 89 | 233 | 1.0 | 3.0 | 0.00 | 0.00 | 0.00 | 65 | 1014.1 |
| 20260905154527 | 89 | 274 | 1.0 | 3.0 | 0.00 | 0.00 | 0.00 | 65 | 1014.1 |
| 20260905154029 | 88 | 273 | 1.0 | 3.0 | 0.00 | 0.00 | 0.00 | 66 | 1014.1 |
| 20260905153516 | 88 | 288 | 1.0 | 3.0 | 0.00 | 0.00 | 0.00 | 68 | 1014.1 |
| 20260905153027 | 87 | 288 | 2.0 | 3.0 | 0.00 | 0.00 | 0.00 | 69 | 1014.0 |
| 20260905152530 | 87 | 304 | 2.0 | 3.0 | 0.00 | 0.00 | 0.00 | 68 | 1014.1 |
| 20260905152055 | 87 | 27 | 1.0 | 3.0 | 0.00 | 0.00 | 0.00 | 69 | 1014.1 |
| 20260905151525 | 86 | 28 | 1.0 | 3.0 | 0.00 | 0.00 | 0.00 | 65 | 1014.1 |
| 20260905151027 | 86 | 27 | 1.0 | 2.0 | 0.00 | 0.00 | 0.00 | 68 | 1014.1 |
| 20260905150529 | 85 | 27 | 1.0 | 2.0 | 0.00 | 0.00 | 0.00 | 70 | 1014.0 |
| 20260905150030 | 85 | 27 | 1.0 | 2.0 | 0.00 | 0.00 | 0.00 | 71 | 1014.0 |
| 20260905145521 | 84 | 28 | 1.0 | 2.0 | 0.00 | 0.00 | 0.00 | 72 | 1014.0 |
| 20260905145024 | 84 | 28 | 1.0 | 2.0 | 0.00 | 0.00 | 0.00 | 70 | 1014.0 |
| 20260905144534 | 84 | 23 | 1.0 | 2.0 | 0.00 | 0.00 | 0.00 | 72 | 1014.0 |
| 20260905144025 | 84 | 23 | 1.0 | 2.0 | 0.00 | 0.00 | 0.00 | 73 | 1014.0 |
| 20260905143521 | 84 | 23 | 1.0 | 2.0 | 0.00 | 0.00 | 0.00 | 73 | 1014.1 |
| 20260905143023 | 84 | 23 | 1.0 | 3.0 | 0.00 | 0.00 | 0.00 | 72 | 1014.1 |
| 20260905142555 | 83 | 23 | 1.0 | 3.0 | 0.00 | 0.00 | 0.00 | 74 | 1014.1 |
| 20260905142026 | 83 | 24 | 0.0 | 2.0 | 0.00 | 0.00 | 0.00 | 74 | 1014.2 |
| 20260905141530 | 82 | 24 | 1.0 | 2.0 | 0.00 | 0.00 | 0.00 | 74 | 1014.2 |
| 20260905141032 | 82 | 24 | 0.0 | 2.0 | 0.00 | 0.00 | 0.00 | 76 | 1014.2 |
| 20260905140524 | 82 | 25 | 1.0 | 2.0 | 0.00 | 0.00 | 0.00 | 80 | 1014.1 |
| 20260905140026 | 81 | 25 | 0.0 | 1.0 | 0.00 | 0.00 | 0.00 | 78 | 1014.2 |
| 20260905135528 | 81 | 25 | 1.0 | 2.0 | 0.00 | 0.00 | 0.00 | 80 | 1014.3 |
| 20260905135050 | 81 | 25 | 0.0 | 2.0 | 0.00 | 0.00 | 0.00 | 84 | 1014.3 |